Theta_e
352 347 343 342 344 345 345 344 345 347 347 346 347 347 348 348 348 349 350 350 350 350 351 350 350 350 349 349 349 349 349 350 351 350 350 350 350 351 351 350 350 351 352 353 353 353 352 353 355 355 355 356 356 355 354 354 355 355 356 356 355 354 354
353 349 344 342 345 346 345 345 345 347 347 347 347 347 348 348 348 349 349 350 350 350 350 350 350 349 348 348 348 348 349 350 350 350 350 350 350 350 350 350 351 351 352 352 353 353 352 352 354 355 355 355 355 355 354 354 355 356 356 355 354 354 354
352 350 346 343 345 346 345 345 346 347 347 348 348 347 348 348 348 349 349 350 350 350 349 350 350 349 348 347 346 347 349 350 349 349 350 350 350 350 350 351 352 352 352 352 353 353 351 351 353 354 354 355 354 355 355 354 355 356 356 355 355 355 355
352 351 347 344 345 346 345 344 346 347 348 348 348 348 348 349 349 349 349 349 350 350 350 349 349 349 348 347 346 346 348 349 349 349 350 350 351 352 352 352 352 352 351 352 352 351 351 351 352 353 353 354 354 355 355 355 355 356 356 355 355 356 356
352 351 349 346 345 347 345 344 346 347 348 348 349 349 349 349 349 349 350 350 350 349 349 349 348 349 349 348 346 345 346 348 348 349 349 350 352 353 353 352 352 351 350 351 351 351 352 352 352 353 353 354 354 354 354 354 354 355 355 355 355 356 356
353 352 351 348 346 348 346 344 346 347 348 349 348 349 349 349 350 350 350 350 350 350 350 350 350 349 350 349 347 345 346 347 348 349 349 350 352 353 352 351 350 350 349 350 350 351 352 353 352 353 354 354 354 354 354 355 354 355 355 355 355 356 357
352 352 352 350 349 349 346 344 345 347 348 348 349 349 350 350 351 351 351 350 351 351 350 350 351 350 350 350 348 347 347 348 348 349 349 350 350 352 352 350 349 349 349 350 349 350 351 352 352 353 355 355 355 354 354 354 355 355 354 354 355 356 357
354 355 356 353 352 352 348 345 346 347 348 348 349 349 350 351 351 351 352 352 351 351 351 351 351 351 351 350 350 349 349 349 349 349 349 349 350 350 351 350 350 349 350 350 350 350 350 351 352 353 354 355 356 356 355 355 355 355 354 354 354 356 357
358 357 356 353 352 351 348 346 346 347 348 348 349 350 350 351 351 352 353 352 352 352 352 352 352 351 352 351 351 350 350 350 349 349 349 349 349 349 349 349 350 349 350 351 352 351 351 352 354 354 354 354 355 355 355 355 355 355 354 353 354 355 356
358 354 353 353 354 352 348 347 347 347 347 347 348 349 350 351 351 352 353 353 353 353 352 352 352 352 352 351 351 351 350 350 350 350 350 350 349 348 347 349 350 350 350 351 353 353 352 354 355 355 355 354 355 355 354 354 354 354 354 354 354 355 356
356 353 352 353 356 357 356 353 349 347 347 347 347 349 350 351 351 352 353 353 354 354 353 353 353 353 352 352 352 351 351 351 351 351 351 351 350 348 347 349 349 350 351 352 353 353 353 355 356 356 355 355 355 355 355 354 354 354 355 355 355 355 356
354 354 354 356 359 360 360 356 350 347 347 347 347 348 349 350 351 352 352 353 354 354 354 354 353 353 353 352 352 352 352 352 352 352 352 351 350 347 346 347 348 349 351 353 354 354 354 354 355 355 355 355 355 355 355 355 354 354 355 355 355 355 355
351 352 353 358 362 361 359 358 353 348 347 347 346 347 348 349 350 351 352 352 354 354 355 355 354 354 354 353 353 353 353 353 353 353 353 352 351 349 348 349 350 351 352 354 355 354 354 354 355 355 355 355 355 355 355 355 355 354 355 355 355 355 355
351 351 350 352 359 361 359 360 356 349 347 347 347 347 347 347 347 349 350 352 353 354 355 355 355 355 355 354 354 354 353 353 353 353 353 353 352 352 352 352 353 354 354 355 356 355 355 355 355 356 355 355 355 355 355 355 355 355 354 354 354 354 354
350 351 350 349 353 356 354 354 353 349 347 348 347 347 346 346 346 347 349 351 352 354 355 356 356 356 356 355 355 355 354 354 354 354 354 354 354 353 353 353 353 354 354 355 355 355 355 355 355 355 354 354 354 354 354 354 354 354 354 354 354 353 353
349 350 350 349 350 350 350 350 349 347 347 348 347 348 347 347 347 348 349 350 351 353 355 356 356 356 356 357 356 356 356 356 356 355 355 355 354 354 354 354 354 355 355 355 355 355 355 355 355 354 353 353 353 353 353 353 353 354 354 354 353 352 353
348 348 348 348 348 349 349 349 348 347 348 348 348 348 348 348 348 348 349 350 351 353 355 355 355 355 354 354 354 354 355 356 357 357 357 356 356 356 355 355 355 355 355 355 355 355 355 355 355 354 353 353 353 353 353 353 353 354 353 352 351 351 352
348 348 348 347 347 347 347 347 347 347 348 348 348 349 348 348 349 349 350 351 351 353 355 353 351 351 353 353 352 351 350 352 354 356 356 356 356 356 356 356 355 354 354 353 353 354 354 354 354 354 354 353 353 352 352 352 353 353 352 351 351 352 351
345 346 347 347 346 346 346 346 345 344 345 346 347 348 349 349 349 349 350 351 351 353 354 351 349 349 349 350 352 352 350 349 350 353 354 355 354 353 353 353 352 351 351 351 351 351 352 352 353 353 353 353 352 352 352 352 352 352 352 351 351 352 352
340 341 343 344 344 344 343 343 342 340 341 342 344 346 348 349 350 350 350 351 352 352 352 351 349 348 347 347 349 349 348 348 349 350 351 351 350 349 350 350 350 350 351 351 351 351 351 352 351 350 351 351 351 351 351 351 352 352 352 351 351 351 352
337 338 339 340 339 339 339 339 338 337 337 339 341 343 345 346 347 348 350 351 352 351 350 349 348 347 346 347 347 345 346 347 348 348 349 350 349 349 349 349 350 351 351 352 353 353 353 351 349 347 348 349 350 350 350 351 351 351 351 350 350 351 352
334 334 334 335 334 335 335 335 335 334 333 334 336 337 339 341 342 342 344 347 349 348 348 347 346 346 345 346 345 345 346 348 347 347 349 350 350 350 350 351 351 352 352 353 353 353 353 353 351 350 351 350 349 348 348 349 349 349 349 349 349 350 351
331 331 332 332 331 332 332 332 332 332 331 331 332 333 335 337 338 338 339 340 344 344 344 344 344 344 344 344 344 345 347 348 347 347 347 348 349 349 350 350 351 351 352 352 352 353 353 353 353 353 352 350 348 348 347 347 348 347 346 346 347 348 348
328 329 329 330 330 331 330 330 330 330 330 330 330 331 333 335 336 336 334 335 340 342 342 342 342 343 342 342 342 343 343 343 343 343 343 344 344 345 345 346 347 348 348 348 348 348 348 349 350 351 350 348 348 348 348 347 347 345 344 344 345 345 346
327 327 327 328 329 329 329 329 330 330 330 328 328 330 331 333 334 332 330 331 335 337 337 337 339 340 340 339 338 338 338 338 339 340 341 342 341 341 342 344 346 345 345 345 345 345 345 347 347 348 348 348 348 347 346 345 344 344 343 344 344 345 346
325 326 326 326 326 327 328 329 329 328 327 327 327 328 330 331 330 329 328 329 330 331 332 334 336 337 337 336 335 335 334 333 334 335 337 339 339 339 340 343 344 344 344 344 344 344 344 345 346 346 345 345 344 343 341 340 340 341 341 342 342 343 344
324 324 324 324 325 325 327 327 326 326 326 326 326 326 327 328 327 327 327 327 327 327 328 331 334 335 336 336 335 336 336 335 335 336 336 338 338 338 338 341 343 343 344 344 344 343 343 343 343 343 342 340 339 338 337 336 336 336 337 337 338 339 340
323 323 323 324 324 324 325 325 325 325 325 325 326 325 326 326 326 326 326 326 326 325 326 330 333 335 336 337 337 338 339 339 340 340 340 340 340 340 341 342 343 343 343 343 342 341 340 340 339 338 337 336 334 334 333 333 333 333 332 332 334 335 336
321 321 322 322 322 323 323 323 323 323 323 324 325 325 325 326 326 326 325 325 325 324 324 327 330 332 334 335 335 336 339 340 340 340 340 341 341 341 341 342 342 342 341 340 340 338 337 335 335 334 332 331 330 330 329 330 331 330 329 329 330 331 331
320 321 321 321 321 321 322 322 321 321 322 323 324 324 325 325 325 325 325 325 324 322 322 324 325 327 328 330 331 334 337 338 337 336 336 338 339 339 339 339 340 340 340 338 337 335 334 332 331 331 329 328 327 327 326 325 326 326 325 325 325 325 325
320 320 320 320 320 321 321 321 321 321 321 322 323 324 324 325 325 324 324 324 323 322 322 323 323 324 326 327 330 332 333 333 332 331 332 334 335 335 335 336 338 339 339 336 333 331 330 329 329 330 328 326 324 322 321 321 320 320 320 319 320 319 319
320 320 319 319 319 320 320 321 321 321 321 321 322 323 323 324 324 323 323 323 323 322 323 323 323 324 325 327 328 327 327 326 324 323 325 326 328 331 332 333 335 337 338 336 330 328 329 330 330 331 328 324 321 320 320 319 319 319 319 318 317 317 315
320 320 319 319 318 318 319 319 318 318 318 316 316 316 317 319 321 322 323 323 323 323 323 324 324 324 325 325 324 322 321 319 318 318 318 318 319 322 326 330 332 334 337 336 331 330 331 332 332 331 328 325 322 321 321 320 321 321 320 319 317 316 314
320 320 320 319 318 316 316 314 313 312 311 310 310 310 310 312 314 318 321 323 323 323 323 323 324 324 324 323 322 321 320 319 319 320 319 317 314 314 316 320 326 330 333 333 332 331 331 331 331 329 325 323 321 321 320 319 318 318 316 315 314 313 312
320 320 319 318 316 314 313 313 312 311 309 309 308 307 307 308 310 313 317 320 322 322 323 324 325 324 323 322 322 321 321 321 320 319 318 318 316 314 312 313 317 323 327 329 330 329 328 327 325 321 318 317 317 316 316 315 314 313 312 312 312 312 312
318 318 318 317 316 316 316 317 316 314 313 313 311 309 308 308 308 309 311 314 317 319 320 323 325 325 324 324 324 324 324 323 322 320 321 320 319 317 315 314 314 317 319 321 321 320 320 319 318 316 315 315 315 316 316 316 315 315 313 313 312 312 311
319 318 319 320 320 320 321 322 320 318 317 317 316 314 314 313 312 311 310 311 314 316 317 318 320 322 323 323 323 324 325 325 324 323 323 323 321 319 319 318 317 316 315 316 316 316 316 316 315 315 316 316 317 317 317 318 318 318 318 317 317 316 316
321 320 321 323 323 323 324 324 323 322 321 320 319 318 318 317 317 316 314 312 313 314 317 319 319 319 320 320 320 320 322 323 324 324 323 323 322 321 320 320 319 318 317 317 317 317 317 317 316 316 316 316 316 316 315 316 317 319 320 321 321 321 322
Wind_Speed
8 8 9 9 10 10 11 16 20 20 22 24 25 26 27 27 28 29 29 31 32 32 32 32 32 31 30 30 30 29 27 25 21 20 20 20 21 21 20 19 19 18 17 17 16 15 15 15 14 13 12 11 11 10 9 10 10 8 7 7 7 7 7
9 8 8 9 10 10 13 18 21 21 23 24 25 26 26 27 28 29 29 31 32 32 32 32 32 31 30 29 30 30 29 26 23 21 20 20 20 21 20 19 19 18 18 17 16 15 14 15 15 14 13 12 12 11 10 11 11 9 8 8 8 8 8
10 9 9 10 10 10 13 17 20 22 23 24 24 25 26 28 30 31 31 31 31 31 31 32 32 32 30 28 29 31 30 28 24 22 22 21 20 20 19 19 18 17 17 17 16 16 15 15 15 15 14 13 12 12 11 11 12 11 9 9 9 9 9
11 10 9 10 11 11 13 17 20 22 24 25 26 28 29 31 31 31 31 31 31 31 31 32 32 32 30 29 29 31 31 29 25 23 22 21 20 19 19 19 18 17 17 16 16 15 15 15 15 14 14 14 13 13 12 12 12 12 11 11 11 11 11
10 10 9 9 10 9 11 16 21 23 25 26 27 29 30 31 31 30 30 30 31 31 32 32 32 31 30 29 29 31 32 30 26 24 23 22 20 19 19 19 18 17 17 16 15 15 15 15 15 15 15 15 15 14 13 13 13 13 13 13 12 12 12
7 8 8 8 9 9 10 16 22 24 25 26 27 28 29 29 29 29 30 30 30 30 30 30 30 31 30 30 29 30 30 30 27 25 24 22 21 21 20 19 18 18 17 17 16 16 15 15 15 16 15 15 15 15 15 14 14 14 14 14 14 13 13
6 6 6 6 7 8 9 14 19 21 23 23 23 24 25 26 27 28 29 29 30 29 28 29 30 30 29 29 29 29 30 29 28 27 25 24 23 22 21 20 18 17 16 16 17 17 17 16 16 16 16 16 16 16 16 16 15 15 15 15 15 14 13
4 6 6 5 6 7 8 12 17 19 20 20 20 21 23 24 25 25 26 28 30 29 28 29 29 30 30 29 29 29 29 29 28 27 26 25 25 24 23 21 19 17 16 16 17 17 17 17 16 16 16 17 17 17 17 17 16 15 15 15 15 15 14
3 4 4 3 3 4 5 10 16 19 21 21 21 23 25 25 25 25 25 26 27 28 29 30 29 30 30 29 29 30 29 29 28 27 27 26 26 26 26 24 21 18 17 17 16 16 17 16 16 15 16 16 17 17 17 17 17 16 16 16 15 15 15
5 5 6 6 6 6 7 7 9 13 16 18 20 21 24 25 26 26 24 24 24 26 29 30 29 29 29 29 30 29 29 29 28 27 27 26 26 26 26 25 23 20 18 18 17 16 16 17 16 16 16 17 18 18 18 17 17 17 17 16 16 16 16
5 5 6 7 6 7 7 7 6 6 9 13 16 18 21 24 25 25 24 25 25 25 26 27 27 28 28 29 29 28 28 28 28 27 26 26 25 25 25 25 24 22 20 19 18 18 18 18 18 17 18 18 18 18 19 18 18 19 18 18 18 18 17
5 5 6 6 5 5 5 6 7 6 7 9 12 14 17 20 21 21 22 23 25 25 25 24 24 25 26 27 27 27 27 27 27 27 26 26 25 24 24 24 24 23 22 21 20 19 20 20 20 20 20 20 20 20 20 19 20 20 20 20 20 19 19
5 4 4 6 6 5 4 4 5 6 7 9 11 13 14 15 16 17 19 21 23 24 25 25 25 26 27 28 28 28 28 28 27 27 27 26 25 23 23 23 23 23 22 21 21 21 22 21 21 21 22 21 21 21 21 21 21 21 21 21 21 20 20
5 4 3 1 4 5 6 5 5 6 8 10 11 12 12 13 17 20 21 22 23 23 25 26 27 27 28 28 29 30 30 29 28 27 26 25 24 23 23 22 22 22 21 21 21 22 23 23 22 22 22 23 23 23 23 23 23 23 22 21 21 21 21
4 3 1 2 2 2 2 3 4 6 9 12 15 16 17 19 23 26 24 24 24 24 26 26 28 29 30 30 30 30 30 28 27 27 25 24 24 24 24 24 23 23 23 22 22 22 23 23 23 23 23 24 24 24 24 24 24 24 24 24 23 22 22
5 5 4 2 3 4 3 2 1 4 8 12 15 17 19 21 25 27 27 27 26 26 26 27 28 28 27 27 28 28 28 27 26 25 25 25 25 25 25 24 24 24 24 24 23 23 23 23 23 23 23 24 24 24 25 26 26 25 25 24 25 24 23
8 7 7 6 5 5 5 5 5 4 7 10 12 13 15 17 21 25 27 27 27 26 26 25 23 21 20 19 18 19 21 23 24 23 24 24 24 25 24 24 24 24 25 24 23 23 24 24 24 24 24 23 23 24 25 26 26 25 23 23 24 25 26
9 8 7 7 6 6 6 6 6 6 8 10 11 11 13 15 19 22 25 27 29 28 25 21 19 20 22 21 19 15 13 15 18 19 21 21 21 22 22 22 23 23 23 23 22 22 23 24 25 26 25 24 24 25 26 27 28 27 25 25 24 24 26
9 8 7 7 7 6 6 6 7 9 9 8 8 9 11 13 16 20 24 27 28 28 26 23 22 23 23 22 22 20 15 14 16 17 18 18 17 17 17 17 18 19 19 20 20 20 21 22 24 25 25 26 26 26 26 27 28 28 27 27 25 23 25
9 8 8 8 8 8 8 9 11 13 14 13 10 8 8 9 12 16 20 22 23 23 24 26 25 25 23 19 18 17 14 13 15 15 15 14 13 13 12 12 13 14 14 15 15 15 15 16 16 16 18 21 22 23 24 25 26 26 26 25 25 24 25
8 9 9 9 9 9 10 12 13 15 16 15 13 10 6 4 6 9 13 17 19 18 19 22 23 23 24 21 16 13 10 8 10 11 10 9 9 10 10 10 12 12 12 11 10 10 9 8 8 8 10 13 17 19 20 21 22 22 23 24 24 24 24
7 8 8 8 9 10 11 13 14 15 17 17 18 17 16 13 11 10 7 7 12 13 14 16 16 15 16 16 14 11 7 6 7 8 7 7 7 9 10 11 12 12 11 10 10 10 9 8 8 9 11 14 16 17 16 17 19 19 20 21 22 23 23
7 8 9 10 11 12 13 14 15 17 19 21 23 22 20 19 17 15 13 9 13 17 16 16 15 13 13 12 9 6 5 6 7 6 5 5 6 7 9 9 10 10 10 10 10 9 9 9 11 13 13 13 13 13 13 15 18 17 16 17 17 18 19
10 11 12 13 14 14 15 15 16 18 20 22 23 21 20 20 21 21 19 18 21 22 19 17 16 15 14 14 12 11 10 9 9 9 8 6 2 4 5 7 9 10 9 10 12 13 13 13 12 13 13 11 11 11 11 13 14 14 14 14 14 14 15
10 13 14 14 14 14 14 14 15 17 20 22 22 20 19 21 24 25 23 22 23 24 20 17 15 14 14 14 13 12 11 11 12 12 11 8 3 2 3 4 6 7 6 6 9 11 12 11 10 10 11 10 10 10 8 9 10 11 12 12 12 12 12
9 12 14 13 13 13 13 14 16 17 19 21 19 18 20 22 24 25 23 23 25 24 20 16 13 12 12 11 9 8 7 7 9 10 10 8 4 1 0 1 3 4 3 3 3 4 6 7 7 7 7 5 5 4 4 4 5 6 8 9 10 10 10
11 12 13 12 12 12 13 14 15 16 17 18 18 18 20 22 24 23 21 22 22 20 17 15 13 11 11 11 11 12 12 11 10 7 5 5 4 2 1 0 2 3 4 4 5 5 6 5 5 5 4 2 0 1 2 2 2 4 5 6 6 7 7
12 13 12 11 11 12 13 14 15 16 16 17 18 19 19 21 22 22 21 22 19 15 14 15 15 13 13 14 15 16 17 16 13 11 8 6 5 4 3 3 4 4 4 3 3 5 4 2 2 1 2 4 4 4 5 5 5 5 7 8 8 9 9
11 11 11 11 11 11 12 14 16 16 17 17 17 18 18 20 22 22 22 21 18 13 13 14 15 14 14 15 15 15 14 14 13 13 11 10 8 7 7 6 6 7 7 6 4 3 3 5 5 6 7 9 8 8 8 9 8 8 10 10 10 11 11
9 10 10 10 11 10 11 14 15 16 16 16 17 17 18 19 20 22 21 20 16 13 13 12 13 14 15 15 14 13 13 13 13 13 12 11 9 9 8 7 6 7 8 8 7 8 8 9 9 9 10 10 10 11 11 11 10 10 11 11 11 11 11
8 9 10 10 10 10 11 13 13 14 15 15 16 17 17 18 19 21 20 17 15 13 12 11 12 13 14 14 13 13 12 12 13 13 13 12 11 10 9 7 6 6 7 6 7 9 11 11 11 10 11 10 10 10 10 10 10 9 9 10 10 10 10
7 9 10 10 10 9 10 11 11 12 13 14 15 15 16 16 18 19 19 16 14 12 11 11 12 13 12 12 12 12 12 12 13 13 13 13 12 11 10 8 7 6 6 5 6 8 10 10 9 8 9 9 9 9 8 7 7 7 8 9 9 10 10
7 8 9 9 8 8 8 9 10 10 11 12 12 13 13 14 15 16 16 15 14 12 11 12 13 12 12 11 11 10 11 11 12 12 11 11 10 10 9 8 7 6 6 5 5 6 7 7 6 6 7 7 7 6 7 7 8 9 9 10 11 11 11
9 9 8 7 7 6 6 7 8 8 8 9 10 10 10 11 11 11 12 13 13 10 10 11 12 12 11 10 10 9 9 9 9 9 9 9 9 9 9 8 8 8 7 6 5 4 5 5 6 7 7 6 7 7 8 10 12 12 12 12 12 11 10
9 9 8 7 6 5 5 6 7 7 8 8 8 8 9 9 9 9 9 10 10 10 10 10 10 9 9 8 8 8 7 7 7 8 8 9 9 10 10 9 8 8 9 8 8 7 6 6 7 7 7 7 8 10 11 12 13 13 12 12 11 10 9
8 8 7 6 5 4 5 6 7 8 8 9 9 9 9 9 9 9 8 8 7 8 9 8 8 8 9 8 8 7 7 7 7 7 7 7 8 9 10 10 9 9 9 9 8 8 7 7 8 9 9 9 11 12 13 13 12 12 12 11 10 10 9
7 6 5 4 3 3 4 6 7 8 8 9 9 10 10 11 10 10 9 8 7 7 6 6 6 6 6 7 6 5 5 5 5 4 4 5 6 7 8 9 10 9 9 9 8 9 9 9 10 10 10 11 13 14 14 14 14 13 13 13 12 11 9
6 5 4 3 1 2 4 5 6 7 7 7 8 9 10 10 11 11 11 9 8 7 6 6 5 5 4 3 4 3 3 3 3 3 3 3 4 4 6 7 8 8 8 8 8 8 8 9 9 9 10 10 11 12 14 15 15 14 14 14 14 12 10
Wind_Direction
179 183 186 182 182 182 184 185 186 187 186 187 189 189 190 192 193 195 197 199 201 203 205 208 210 213 217 221 222 224 226 230 234 238 241 243 240 238 237 235 234 233 234 236 235 234 234 231 230 235 243 248 252 256 250 237 232 238 251 263 270 271 271
179 184 185 182 183 184 185 186 187 188 189 191 192 191 191 193 194 196 199 201 203 206 207 209 211 213 217 220 222 223 224 228 234 239 241 242 241 240 240 238 238 239 243 244 243 243 243 238 235 238 243 248 252 255 251 241 235 239 249 256 261 264 267
182 183 183 183 184 184 184 185 188 190 191 192 192 192 194 196 198 200 201 203 204 206 209 210 211 214 216 219 220 220 221 226 233 237 238 240 241 241 241 240 242 246 248 249 249 250 249 245 241 242 245 250 254 255 253 245 239 243 250 256 258 260 265
185 182 182 185 184 183 183 184 188 192 194 195 194 195 197 199 202 203 204 205 206 207 209 211 213 215 217 219 219 219 220 224 231 236 237 239 242 242 240 240 243 248 251 252 252 254 254 250 246 247 250 251 254 257 255 248 243 245 251 256 259 262 268
187 181 179 184 183 183 184 185 189 193 195 198 198 198 200 201 202 204 205 207 208 211 213 214 215 216 218 220 220 220 220 223 229 234 235 236 238 238 240 243 247 252 256 258 257 257 257 254 251 253 255 254 256 259 259 253 249 251 255 257 259 264 269
186 183 182 182 181 181 185 188 192 194 196 198 200 201 202 201 202 204 206 208 210 213 215 215 216 216 218 220 221 221 222 224 229 232 234 236 236 237 240 245 250 255 259 261 260 260 260 259 259 258 259 260 260 261 262 259 256 258 260 260 261 265 270
179 184 185 180 177 179 184 187 191 195 197 199 201 202 202 202 203 206 207 208 211 213 213 214 216 217 218 220 221 222 223 226 229 231 234 236 237 240 242 246 250 254 259 262 261 261 261 263 265 264 264 265 265 264 263 262 263 264 264 262 261 265 269
168 173 175 174 170 168 171 173 177 184 190 194 196 198 201 203 205 208 210 211 212 213 213 215 217 217 219 221 221 223 225 227 229 232 234 236 239 242 244 247 250 253 258 261 262 263 263 267 270 269 267 266 267 266 263 263 265 266 265 262 262 264 268
102 127 129 120 129 123 127 155 168 175 181 188 191 194 198 201 203 207 212 214 214 214 215 216 218 219 220 220 222 224 225 227 229 232 234 236 238 242 244 246 249 253 256 258 262 265 265 268 272 269 266 264 265 266 266 265 265 266 265 263 262 264 267
74 78 84 83 90 83 78 103 149 170 176 182 188 191 194 199 204 206 209 213 217 219 219 218 218 218 218 218 221 224 224 225 228 230 233 236 237 240 242 243 247 252 254 256 260 263 266 268 270 268 265 263 265 267 267 266 265 265 265 262 260 261 263
78 79 83 86 98 110 107 106 123 160 177 182 185 187 191 198 204 206 207 211 215 220 224 222 218 217 217 217 219 220 222 224 226 228 231 234 236 238 239 241 245 250 254 256 258 262 266 266 267 268 266 264 265 266 266 266 265 265 265 262 260 259 261
94 104 109 109 110 115 117 115 125 147 176 190 193 196 197 198 200 205 211 213 215 219 223 224 222 218 216 216 216 218 221 223 224 227 229 232 234 235 236 239 243 247 251 253 255 259 263 264 265 267 267 267 267 267 267 266 264 264 266 265 263 262 263
58 74 118 138 141 135 120 113 131 152 175 193 202 208 209 205 204 209 217 220 221 221 220 221 221 220 218 216 215 216 219 221 223 226 228 230 231 232 234 237 241 245 248 251 253 255 257 260 263 266 267 267 267 267 268 268 266 265 265 264 263 263 264
51 36 11 129 164 167 157 152 161 170 183 196 203 208 213 219 224 225 224 226 226 224 223 220 217 217 218 216 215 216 217 219 221 224 227 228 229 230 231 234 237 240 243 247 251 254 257 259 262 266 268 268 268 269 269 268 267 265 264 263 262 262 264
75 78 18 294 261 233 190 178 177 180 194 205 208 209 208 212 221 226 226 228 230 228 226 222 215 214 215 215 216 217 217 216 217 220 223 225 227 229 231 233 236 238 240 242 245 250 255 260 265 269 269 267 268 270 269 268 268 267 266 264 262 262 264
38 56 59 19 340 333 323 304 240 210 217 221 221 220 213 206 210 216 220 224 227 228 227 221 215 212 212 214 217 217 216 215 215 217 220 223 227 230 232 234 236 238 240 242 244 246 250 255 262 267 268 268 270 270 269 269 268 267 267 267 267 266 264
33 28 26 20 13 7 356 345 333 299 269 257 251 243 231 219 213 215 219 221 222 223 222 215 206 201 203 211 217 218 215 212 212 215 219 224 228 232 235 239 241 243 243 243 244 246 248 252 256 261 265 267 268 269 269 267 264 264 268 271 273 272 267
36 29 26 26 26 24 11 353 345 332 306 288 278 266 251 239 228 222 219 218 217 216 210 200 195 200 207 211 212 214 216 215 215 218 224 228 233 238 241 245 247 248 248 247 248 250 251 253 254 256 260 263 264 266 265 263 263 265 268 267 267 269 267
35 33 37 43 39 33 22 11 13 12 357 332 310 290 269 253 240 232 225 221 217 210 197 188 192 201 206 209 210 206 206 216 223 228 233 235 238 242 245 247 250 251 251 251 253 254 255 257 256 257 258 259 261 262 261 260 262 264 264 262 262 265 263
33 30 32 38 40 37 30 27 30 31 27 23 10 340 294 264 252 243 235 228 220 208 193 188 191 193 194 203 212 205 199 213 227 234 236 235 236 237 238 240 244 246 247 249 253 257 260 262 262 262 262 262 260 258 257 258 260 262 261 260 262 263 260
34 34 34 38 42 39 34 33 34 34 33 34 30 19 0 322 294 271 249 231 219 206 193 187 186 185 186 192 202 204 199 208 225 233 230 223 223 223 223 230 235 238 244 249 254 260 266 267 262 262 272 276 270 263 259 257 257 257 258 258 260 262 259
34 38 37 37 41 39 34 35 38 39 38 39 36 33 35 32 20 2 327 245 198 175 164 164 164 165 170 176 188 200 198 188 202 216 211 201 208 215 219 227 233 238 244 249 254 257 257 254 254 257 260 262 263 263 262 261 259 257 258 260 261 261 260
41 43 42 43 46 46 42 42 46 48 46 45 41 39 41 43 43 42 36 59 108 114 115 122 122 119 121 127 142 156 150 149 157 149 136 160 198 220 234 244 246 246 247 250 255 260 257 254 257 261 257 250 253 258 258 259 260 259 261 263 264 264 263
49 47 46 48 50 49 46 45 47 48 50 49 45 43 48 52 57 59 55 63 86 94 93 96 103 108 108 105 107 110 107 106 106 98 91 95 154 253 287 297 287 282 280 270 266 267 269 268 266 264 262 255 256 258 255 255 259 263 268 272 273 274 272
54 55 57 56 55 52 47 48 49 48 48 48 46 48 55 60 63 63 55 58 76 83 79 77 86 100 105 100 97 98 94 82 76 78 84 88 104 265 312 327 310 317 333 311 284 273 270 268 260 253 253 251 253 256 256 257 262 268 276 280 282 283 281
59 61 62 61 60 60 56 52 48 43 41 42 46 55 63 66 66 63 57 56 64 68 67 67 75 89 95 93 89 89 79 64 60 64 70 76 85 125 313 316 306 327 354 339 295 269 263 264 251 237 233 234 241 249 251 257 267 278 287 292 293 292 289
73 70 67 64 63 65 63 55 47 42 39 42 50 60 67 70 66 60 58 59 57 57 63 71 77 82 87 90 91 84 73 66 67 66 59 58 70 95 133 314 346 349 344 332 310 290 282 273 252 234 220 208 23 42 46 19 344 330 333 337 336 333 331
74 72 70 71 69 68 66 59 51 45 42 44 52 59 65 67 63 56 56 56 52 53 64 73 79 81 80 80 79 76 75 75 78 79 79 77 75 74 62 43 43 39 26 2 307 277 271 251 221 190 106 87 72 59 53 47 38 32 32 32 26 23 22
73 72 71 70 68 67 69 66 59 53 48 46 50 56 60 62 58 54 51 48 48 60 70 74 79 81 79 78 76 77 80 83 83 83 82 79 75 70 61 49 44 48 55 64 87 105 94 86 87 84 81 81 82 78 70 63 58 55 54 51 44 39 37
82 83 80 75 71 70 72 70 65 61 56 51 49 50 53 56 56 53 48 45 49 62 71 77 82 82 80 81 81 83 86 85 83 81 79 78 79 77 75 71 66 67 66 66 77 87 90 93 100 101 92 83 79 76 71 66 61 56 52 48 43 39 36
88 89 87 84 81 76 73 71 68 64 60 55 51 49 49 51 54 52 48 49 56 61 66 76 80 78 79 80 80 83 87 86 83 81 79 80 80 76 76 81 89 92 87 79 81 92 100 104 106 104 96 86 78 72 66 61 56 51 46 41 34 28 24
103 103 101 97 92 85 79 76 71 66 63 57 53 51 49 48 51 51 50 54 63 68 72 82 86 84 85 87 88 90 92 91 90 88 85 84 81 78 77 78 85 98 103 96 90 94 100 103 100 96 93 89 80 71 60 50 42 34 28 25 18 12 7
126 121 114 108 101 95 90 84 75 69 66 61 54 52 50 49 50 52 51 54 62 71 77 83 90 94 96 95 96 96 93 91 87 82 78 76 76 80 82 80 83 95 104 106 103 102 99 93 82 78 80 77 68 53 32 18 10 2 359 358 356 355 354
143 136 126 120 113 104 93 85 78 71 66 64 58 54 53 52 51 51 50 51 55 64 73 78 84 91 95 97 99 98 91 84 75 68 67 67 66 70 76 78 81 86 89 91 95 97 92 82 72 66 60 50 38 23 11 4 359 355 353 350 348 348 350
144 138 135 132 123 108 87 76 73 68 62 58 56 53 51 51 51 49 49 51 50 52 61 70 77 82 87 93 97 94 85 73 64 64 67 69 67 67 71 73 73 77 81 81 78 75 73 71 68 59 45 37 33 26 20 16 10 7 3 356 351 352 355
145 140 141 135 123 106 80 67 65 65 60 51 47 47 45 43 44 42 41 46 48 48 54 60 65 75 86 92 92 86 77 70 67 65 61 60 64 70 76 79 77 78 80 78 74 72 67 62 62 58 48 45 46 43 39 33 26 20 18 12 6 3 7
157 149 145 135 111 76 54 53 57 61 58 49 44 42 37 33 34 33 32 34 36 39 45 49 55 69 85 91 88 85 77 74 77 76 68 66 71 78 85 90 90 87 85 83 80 77 71 68 68 67 61 58 58 56 53 47 39 32 28 26 22 18 21
181 174 176 176 141 53 31 37 41 41 39 35 33 31 28 26 25 25 26 28 28 28 30 34 43 53 61 70 79 80 72 71 80 92 100 100 98 98 98 98 100 100 98 97 94 89 82 78 77 75 71 68 65 62 57 52 49 45 40 36 34 30 31